Location: Unspecified
(0.0000°N, 0.0000°E)
Time: 20:33:03
(UTC+00:00)

CZ-3C DEB - Pass Details

Date: 10 March 2026
Orbit: 544 x 34777 km, 21.8° (Epoch: 16 April)

Event Time Altitude Azimuth Distance (km) Brightness Sun altitude
Rises 16:11:37 0° 247° (WSW) 16,783 ? 29.6°
Reaches altitude 10° 16:28:12 10° 247° (WSW) 19,306 ? 25.4°
Maximum altitude 17:52:53 24° 253° (WSW) 30,493 ? 4.3°
Drops below altitude 10° 20:37:18 10° 264° (W) 39,534 ? -36.7°
Sets 21:59:46 0° 269° (W) 38,009 ? -57.2°
